Location: Arborea
(39.7744°N, 8.5819°E)
Time: 03:30:50
(UTC+00:00)

Cosmos 2360 Rocket - Pass Details

Date: 24 October 2021
Orbit: 832 x 846 km, 71.0° (Epoch: 27 November)

Event Time Altitude Azimuth Distance (km) Brightness Sun altitude
Rises 18:11:18 0° 204° (SSW) 3,371 5.6 -19.4°
Reaches altitude 10° 18:13:43 10° 205° (SSW) 2,443 4.9 -19.9°
Maximum altitude 18:19:20 81° 293° (WNW) 855 2.2 -21.0°
Drops below altitude 10° 18:25:01 10° 21° (NNE) 2,468 4.4 -22.1°
Enters shadow 18:26:00 - 22° (NNE) 2,843 4.8 -22.2°
